Torna al catalogo

STARLINK-6166

AttivoComunicazioniVLEO
NORAD 56383·PAYLOAD·🇺🇸 United States

Lanciato May 4, 2023 da Cape Canaveral Space Force Station

Loading…

Prossimi Passaggi (prossime 24 ore)

TLE

AggiornatoSource: CelesTrak SupGP

Epoca: Sep 14, 2026, 14:35 UTC

1 56383C 23061K   26257.60812500 -.00052593  00000+0 -19051-2 0  2571
2 56383  42.9999 211.1730 0001188 259.7856 333.0409 15.27601232    16

Traccia STARLINK-6166 in tempo reale con AllMySat

Download on the App Store